TimeCDT,TemperatureF,Dew PointF,Humidity,Sea Level PressureIn,VisibilityMPH,Wind Direction,Wind SpeedMPH,Gust SpeedMPH,PrecipitationIn,Events,Conditions,WindDirDegrees,DateUTC
12:52 AM,73.0,68.0,84,29.81,10.0,SSE,10.4,17.3,N/A,,Clear,150,2013-05-27 05:52:00
1:18 AM,73.4,68.0,83,29.85,10.0,SSE,9.2,18.4,N/A,,Mostly Cloudy,160,2013-05-27 06:18:00
1:52 AM,73.0,68.0,84,29.82,10.0,SSE,8.1,-,N/A,,Overcast,150,2013-05-27 06:52:00
2:52 AM,73.0,66.9,81,29.81,10.0,SSE,11.5,-,N/A,,Overcast,160,2013-05-27 07:52:00
3:48 AM,71.6,66.2,83,29.81,10.0,SSE,10.4,21.9,N/A,,Scattered Clouds,160,2013-05-27 08:48:00
3:52 AM,72.0,66.9,84,29.78,10.0,SSE,13.8,18.4,N/A,,Partly Cloudy,160,2013-05-27 08:52:00
4:52 AM,72.0,66.9,84,29.74,10.0,South,12.7,-,N/A,,Scattered Clouds,180,2013-05-27 09:52:00
5:04 AM,71.6,66.2,83,29.77,10.0,South,11.5,-,N/A,,Mostly Cloudy,170,2013-05-27 10:04:00
5:14 AM,71.6,66.2,83,29.77,10.0,SSE,13.8,-,N/A,,Overcast,160,2013-05-27 10:14:00
5:33 AM,71.6,66.2,83,29.76,10.0,South,10.4,20.7,N/A,,Overcast,170,2013-05-27 10:33:00
5:52 AM,72.0,66.9,84,29.73,9.0,SSE,8.1,-,N/A,,Overcast,160,2013-05-27 10:52:00
6:52 AM,72.0,68.0,87,29.77,9.0,NNE,12.7,18.4,N/A,,Overcast,30,2013-05-27 11:52:00
7:50 AM,66.2,60.8,83,29.83,10.0,ENE,20.7,27.6,N/A,,Overcast,70,2013-05-27 12:50:00
7:52 AM,66.0,61.0,84,29.81,10.0,ENE,17.3,27.6,N/A,,Overcast,60,2013-05-27 12:52:00
8:28 AM,64.4,62.6,94,29.84,10.0,ENE,10.4,17.3,0.00,Rain,Light Rain,70,2013-05-27 13:28:00
8:37 AM,62.6,62.6,100,29.83,10.0,ENE,5.8,-,0.00,Rain,Light Rain,70,2013-05-27 13:37:00
8:52 AM,64.0,62.1,93,29.82,10.0,ENE,6.9,-,0.00,,Overcast,70,2013-05-27 13:52:00
9:27 AM,64.4,62.6,94,29.86,10.0,ENE,19.6,26.5,0.00,Rain,Light Rain,60,2013-05-27 14:27:00
9:52 AM,64.0,63.0,96,29.85,10.0,ENE,15.0,25.3,0.00,,Overcast,60,2013-05-27 14:52:00
10:41 AM,64.4,62.6,94,29.85,10.0,East,16.1,28.8,0.00,,Overcast,80,2013-05-27 15:41:00
10:52 AM,64.9,63.0,93,29.82,10.0,East,17.3,38.0,0.00,,Overcast,90,2013-05-27 15:52:00
11:33 AM,66.2,62.6,88,29.82,10.0,East,18.4,26.5,N/A,,Overcast,100,2013-05-27 16:33:00
11:52 AM,66.9,62.1,84,29.79,10.0,ESE,15.0,23.0,N/A,,Overcast,120,2013-05-27 16:52:00
12:35 PM,71.6,64.4,78,29.79,10.0,ESE,15.0,24.2,N/A,,Mostly Cloudy,110,2013-05-27 17:35:00
12:52 PM,73.9,64.0,71,29.74,10.0,SE,16.1,23.0,N/A,,Scattered Clouds,130,2013-05-27 17:52:00
1:52 PM,80.1,66.9,64,29.70,10.0,South,21.9,28.8,N/A,,Scattered Clouds,170,2013-05-27 18:52:00
2:38 PM,80.6,68.0,65,29.71,10.0,SSE,17.3,28.8,N/A,,Overcast,150,2013-05-27 19:38:00
2:52 PM,81.0,69.1,67,29.67,10.0,South,20.7,26.5,N/A,,Mostly Cloudy,170,2013-05-27 19:52:00
3:35 PM,82.4,69.8,66,29.67,10.0,South,20.7,27.6,N/A,,Mostly Cloudy,170,2013-05-27 20:35:00
3:52 PM,82.9,69.1,63,29.64,10.0,South,23.0,27.6,N/A,,Mostly Cloudy,170,2013-05-27 20:52:00
4:52 PM,84.9,68.0,57,29.61,10.0,SSW,19.6,26.5,N/A,,Scattered Clouds,200,2013-05-27 21:52:00
5:52 PM,84.0,69.1,61,29.60,10.0,South,16.1,28.8,N/A,,Mostly Cloudy,180,2013-05-27 22:52:00
6:52 PM,82.9,68.0,60,29.56,10.0,SSW,18.4,25.3,N/A,,Partly Cloudy,200,2013-05-27 23:52:00
7:52 PM,80.1,68.0,67,29.57,10.0,South,15.0,25.3,N/A,,Partly Cloudy,180,2013-05-28 00:52:00
8:52 PM,77.0,66.0,69,29.57,10.0,South,16.1,26.5,N/A,,Partly Cloudy,180,2013-05-28 01:52:00
9:52 PM,77.0,66.9,71,29.61,10.0,South,12.7,25.3,N/A,,Overcast,190,2013-05-28 02:52:00
10:52 PM,77.0,66.9,71,29.63,10.0,SSW,13.8,21.9,N/A,,Overcast,200,2013-05-28 03:52:00
11:06 PM,75.2,66.2,73,29.64,10.0,SSW,15.0,21.9,N/A,,Overcast,200,2013-05-28 04:06:00
11:52 PM,75.9,66.9,74,29.64,10.0,SW,5.8,-,N/A,,Overcast,230,2013-05-28 04:52:00